Location: Observatoire de Paris
(48.8363°N, 2.3365°E)
Time: 17:20:58
(UTC+01:00)

BUGSAT 1 - Visible Passes

Search period start: 25 September 2021 00:00
Search period end: 05 October 2021 00:00
Orbit: 558 x 601 km, 98.1° (Epoch: 25 September)

Date Brightness Start Highest point End Pass type
(mag) Time Alt. Az. Time Alt. Az. Time Alt. Az.
25 Sep ? 05:26:26 10° NNE 05:30:25 48° E 05:34:19 10° S visible
26 Sep ? 05:31:14 10° NNE 05:35:16 53° E 05:39:13 10° S visible
27 Sep ? 05:36:04 10° NNE 05:40:07 60° ESE 05:44:06 10° S visible
28 Sep ? 05:40:53 10° NNE 05:44:58 68° ESE 05:48:58 10° S visible
29 Sep ? 05:45:43 10° NNE 05:49:48 76° ESE 05:53:49 10° S visible
30 Sep ? 05:50:33 10° NNE 05:54:39 85° ESE 05:58:39 10° SSW visible
01 Oct ? 05:55:24 10° NNE 05:59:29 86° WNW 06:03:29 10° SSW visible
02 Oct ? 04:27:15 10° ENE 04:28:28 11° E 04:29:41 10° ESE visible
02 Oct ? 06:00:15 10° NNE 06:04:18 77° WNW 06:08:18 10° SSW visible
03 Oct ? 04:31:37 10° ENE 04:33:22 12° E 04:35:06 10° ESE visible
03 Oct ? 06:05:06 10° N 06:09:08 69° WNW 06:13:06 10° SSW visible
04 Oct ? 04:36:07 10° ENE 04:38:15 14° E 04:40:22 10° ESE visible
04 Oct ? 06:09:57 10° N 06:13:57 61° WNW 06:17:54 10° SSW visible
